ROMMA est une association bénévole à but non lucratif. Votre soutien est indispensable : ADHERER à ROMMA ou FAIRE un DON

Die - (26, Drôme)

Diois (400 m)   Longitude: 5° 21' 55"E   Latitude: 44° 45' 16"N Station partenaire n°159
 

Détail journalier du     <<     >>

Température Precipitation Humidité Pression Vent Dir Rafale Dir. rafale Ensol.
Heure (°C) (mm) (%) (hPa) (km/h) (km/h) (min)
01:00 -3.4094102502S0
02:00 -3.4094102503S0
03:00 -3.8093102603S0
04:00 -3.509410251S3S0
05:00 -3.509410251S3S0
06:00 -3.909310261E5ONO0
07:00 -4.409210261ESE5E0
08:00 -4.4094102603ESE0
09:00 -3.9095102602ESE0
10:00 -1.9095102603ESE50
11:00 1.309110271SSE5SSE40
12:00 3.708510262SSE5SSE30
13:00 5.408110261SSO5SSO0
14:00 9.107610252ONO6ONO0
15:00 11.405610243SE15S0
16:00 11.105610245ESE21ESE10
17:00 10.005710253SE16SE0
18:00 6.906810252NNE8S0
19:00 3.108010252S6S0
20:00 1.608610261S5S0
21:00 0.209010261SO6SO0
22:00 -0.509110261SSE6SSO0
23:00 -0.309310262SSO6SSO0
minuit -0.109110262OSO8ENE0

Graphique du 14-01-2020

 

Serveur OMMA